This demonstration page uses our WeatherBlox Daily Observations layout. Learn more.

Left ArrowRight Arrow

Hourly Observations for June 26, 2018

Temp ( °F °C ) Dew Point ( °F °C ) Humidity (%) Winds ( mph kmh ) Pressure ( in mb ) Visibility ( mi km ) Precip ( " mm )
6:30 am 06:30 Cloudy 68 20 64 18 88 88 ESE 3 6 30.03 1017 10 16 N/A
6:47 am 06:47 Cloudy 68 20 64 18 88 88 ESE 5 7 30.03 1017 8 13 N/A
7:12 am 07:12 Cloudy 68 20 64 18 88 88 ESE 3 6 30.00 1016 8 13 N/A
7:48 am 07:48 Cloudy 68 20 64 18 88 88 SE 5 7 30.03 1017 7 11 N/A
8:52 am 08:52 Cloudy 72 22 66 19 83 83 SSE 6 9 30.00 1016 7 11 N/A
9:54 am 09:54 Cloudy 73 23 68 20 83 83 S 7 11 30.00 1016 8 13 N/A
10:54 am 10:54 Cloudy 73 23 68 20 83 83 SSW 9 15 30.03 1017 8 13 N/A
11:25 am 11:25 Cloudy with Light Showers 73 23 68 20 83 83 WNW 12 19 30.06 1018 2 3 N/A
11:28 am 11:28 Cloudy with Thunderstorms 73 23 66 19 78 78 NW 18 30 30.06 1018 2 2 N/A
11:52 am 11:52 Cloudy with Thunderstorms 66 19 64 18 94 94 N 5 7 30.03 1017 7 11 N/A
12:45 pm 12:45 Cloudy with Thunderstorms 68 20 64 18 88 88 ENE 8 13 30.00 1016 5 8 N/A
1:12 pm 13:12 Partly Cloudy 68 20 64 18 88 88 ENE 8 13 30.00 1016 7 11 N/A
1:53 pm 13:53 Cloudy with Thunderstorms 68 20 64 18 88 88 WSW 12 19 30.06 1018 5 8 N/A
2:45 pm 14:45 Cloudy with Light Rain 68 20 64 18 88 88 E 10 17 29.97 1015 4 6 N/A
3:45 pm 15:45 Partly Cloudy 68 20 64 18 88 88 ESE 8 13 29.94 1014 10 16 N/A
4:55 pm 16:55 Cloudy 72 22 66 19 83 83 S 7 11 29.94 1014 10 16 N/A
5:45 pm 17:45 Partly Cloudy 72 22 66 19 83 83 S 8 13 29.94 1014 10 16 N/A
6:45 pm 18:45 Mostly Sunny 73 23 66 19 78 78 SSE 13 20 29.91 1013 10 16 N/A
7:45 pm 19:45 Mostly Sunny 73 23 66 19 78 78 S 14 22 29.88 1012 10 16 N/A
8:45 pm 20:45 Partly Cloudy 72 22 66 19 83 83 SSE 10 17 29.88 1012 10 16 N/A
9:45 pm 21:45 Partly Cloudy 70 21 66 19 88 88 SSE 10 17 29.91 1013 10 16 N/A

Powered by AerisWeather